Flag for Germany Weather past 2 weeks in Meiningen, Thuringia, Germany

Now
37 °F

Overcast.


Feels Like: 32 °F
Forecast: 39 / 46 °F
Wind: 6 mph from Northwest

Location: Meiningen

Current Time: Dec 21, 2014 at 3:43:26 AM

Latest Report: Dec 21, 2014 at 3:00 AM


Visibility: 19 mi

Pressure: 30.35 "Hg

Humidity: 81%

Dew point: 31 °F

Location of MeiningenLocation

Historic Weather in Meiningen — Graph

°F

Meiningen temperature yesterday

Maximum temperature yesterday: 39 °F (at 3:00 PM)
Minimum temperature yesterday: 35 °F (at 11:00 PM)
Average temperature yesterday: 38 °F

Past Weeks' High & Low Weather Summary

 TemperatureHumidityPressure
High52 °F (Dec 18, 11:00 PM)100% (Dec 6, 2:00 AM)30.47 "Hg (Dec 6, 2:00 AM)
Low24 °F (Dec 9, 1:00 AM)70% (Dec 8, 3:00 PM)29.60 "Hg (Dec 12, 7:00 PM)
Average37 °F92%30.04 "Hg
* Reported Dec 6 2:00 AM — Dec 21 2:00 AM, Meiningen, Weather by CustomWeather, © 2014

Note: Actual official high and low records may vary slightly from our data, if they occured in-between our weather recording intervals... More about our weather records

Advertising

Meiningen weather history for previous 24 hours

 ConditionsComfort  
Time TempWeatherWind HumidityBarometerVisibility
2:00 AM
Dec 21
37 °FPassing clouds.6 mph80%30.32 "Hg22 mi
1:00 AM37 °FOvercast.6 mph81%30.30 "Hg28 mi
12:00 AM36 °FPassing clouds.5 mph84%30.28 "Hg43 mi
11:00 PM
Dec 20
35 °FLow clouds.3 mph84%30.25 "Hg31 mi
9:00 PM37 °FPassing clouds.7 mph82%30.16 "Hg43 mi
8:00 PM38 °FLight rain. Passing clouds.9 mph83%30.11 "Hg3 mi
7:00 PM39 °FPassing clouds.8 mph81%30.09 "Hg31 mi
6:00 PM38 °FLight freezing rain. Passing clouds.6 mph88%30.08 "Hg4 mi
5:00 PM39 °FLight rain. Low clouds.8 mph79%30.05 "Hg11 mi
4:00 PM39 °FOvercast.9 mph74%30.06 "Hg14 mi
3:00 PM39 °FSprinkles. Overcast.8 mph73%30.06 "Hg14 mi
2:00 PM39 °FOvercast.7 mph75%30.08 "Hg19 mi
1:00 PM39 °FOvercast.7 mph75%30.11 "Hg16 mi
12:00 PM38 °FOvercast.7 mph77%30.13 "Hg16 mi
11:00 AM38 °FOvercast.7 mph77%30.16 "Hg19 mi
9:00 AM38 °FPartly sunny.8 mph75%30.18 "Hg25 mi
8:00 AM38 °FOvercast.7 mph76%30.18 "Hg28 mi
7:00 AM38 °FOvercast.6 mph74%30.18 "Hg31 mi
6:00 AM39 °FPassing clouds.5 mph76%30.17 "Hg31 mi
5:00 AM39 °FOvercast.5 mph75%30.16 "Hg40 mi
3:00 AM39 °FOvercast.5 mph76%30.16 "Hg31 mi
Weather by CustomWeather, © 2014

See weather overviewHow to use our weather pages